Location: B�hl
(48.6968°N, 8.1352°E)
Time: 20:21:41
(UTC+00:00)

USA 234 - Pass Details

Date: 08 March 2021
Orbit: 1102 x 1105 km, 123.0° (Epoch: 13 April)

Event Time Altitude Azimuth Distance (km) Brightness Sun altitude
Exits shadow 21:20:34 44° 266° (W) 1,495 4.1 -37.0°
Drops below altitude 10° 21:24:51 10° 252° (WSW) 2,959 5.7 -37.5°
Sets 21:27:20 0° 250° (WSW) 3,916 6.4 -37.8°
